When you browse on this site, cookies collect data to enhance your experience and personalize the content and advertising you see.
Visit our Privacy Policy to learn more. By continuing to use the site, you agree to this use of cookies and data.
  • In Deutschland
  • Länderverzeichnis
  • Für 7 Tage
  • Wassertemperatur
  • Wetterkarte
  • Widgets
  • user-avatar
    Anmelden

    Stündliche Wetter Mohilyow

    Heute, 29 Mai, Freitag

    Zeit Temperatur Niederschläge Wind Luftdruck Luftfeuchtigkeit
    00:00 +12°C° 1.6 mm 2 m/S 748 mmHg 91%
    01:00 +11°C° 1.6 mm 3 m/S 748 mmHg 93%
    02:00 +11°C° 1.6 mm 3 m/S 748 mmHg 95%
    03:00 +11°C° 1.2 mm 4 m/S 747 mmHg 95%
    04:00 +10°C° 1.2 mm 5 m/S 746 mmHg 94%
    05:00 +10°C° 1.2 mm 6 m/S 746 mmHg 94%
    06:00 +10°C° 0.5 mm 6 m/S 746 mmHg 93%
    07:00 +10°C° 0.5 mm 6 m/S 746 mmHg 93%
    08:00 +10°C° 0.5 mm 6 m/S 746 mmHg 92%
    09:00 +11°C° 0.2 mm 7 m/S 746 mmHg 91%
    10:00 +11°C° 0.2 mm 7 m/S 746 mmHg 90%
    11:00 +12°C° 0.2 mm 7 m/S 746 mmHg 89%
    12:00 +14°C° 0 mm 7 m/S 745 mmHg 87%
    13:00 +14°C° 0 mm 7 m/S 745 mmHg 85%
    14:00 +14°C° 0 mm 7 m/S 745 mmHg 84%
    15:00 +15°C° 0 mm 7 m/S 745 mmHg 84%
    16:00 +15°C° 0 mm 7 m/S 744 mmHg 84%
    17:00 +15°C° 0 mm 7 m/S 744 mmHg 84%
    18:00 +15°C° 0 mm 6 m/S 744 mmHg 85%
    19:00 +14°C° 0 mm 6 m/S 744 mmHg 86%
    20:00 +14°C° 0 mm 6 m/S 744 mmHg 87%
    21:00 +14°C° 0 mm 6 m/S 743 mmHg 88%
    22:00 +14°C° 0 mm 6 m/S 743 mmHg 89%
    23:00 +14°C° 0 mm 6 m/S 743 mmHg 89%

    Morgen, 30 Mai, Samstag

    Zeit Temperatur Niederschläge Wind Luftdruck Luftfeuchtigkeit
    00:00 +14°C° 0.3 mm 6 m/S 743 mmHg 91%
    01:00 +14°C° 0.3 mm 6 m/S 743 mmHg 92%
    02:00 +14°C° 0.3 mm 6 m/S 743 mmHg 93%
    03:00 +14°C° 0.9 mm 6 m/S 742 mmHg 94%
    04:00 +14°C° 0.9 mm 6 m/S 742 mmHg 95%
    05:00 +14°C° 0.9 mm 6 m/S 742 mmHg 97%
    06:00 +15°C° 0.8 mm 6 m/S 742 mmHg 96%
    07:00 +15°C° 0.8 mm 6 m/S 741 mmHg 95%
    08:00 +15°C° 0.8 mm 6 m/S 741 mmHg 94%
    09:00 +16°C° 0 mm 6 m/S 741 mmHg 93%
    10:00 +16°C° 0 mm 7 m/S 741 mmHg 92%
    11:00 +16°C° 0 mm 7 m/S 740 mmHg 90%
    12:00 +16°C° 0.3 mm 8 m/S 740 mmHg 90%
    13:00 +16°C° 0.3 mm 8 m/S 739 mmHg 89%
    14:00 +16°C° 0.3 mm 8 m/S 739 mmHg 89%
    15:00 +16°C° 0.5 mm 8 m/S 739 mmHg 90%
    16:00 +17°C° 0.5 mm 8 m/S 738 mmHg 91%
    17:00 +17°C° 0.5 mm 8 m/S 738 mmHg 91%
    18:00 +17°C° 2.3 mm 8 m/S 738 mmHg 93%
    19:00 +16°C° 2.3 mm 8 m/S 738 mmHg 94%
    20:00 +16°C° 2.3 mm 8 m/S 738 mmHg 95%
    21:00 +15°C° 2.9 mm 6 m/S 738 mmHg 95%
    22:00 +15°C° 2.9 mm 4 m/S 739 mmHg 96%
    23:00 +14°C° 2.9 mm 3 m/S 739 mmHg 97%

    übermorgen, 31 Mai, Sonntag

    Zeit Temperatur Niederschläge Wind Luftdruck Luftfeuchtigkeit
    00:00 +15°C° 1.1 mm 2 m/S 739 mmHg 98%
    01:00 +14°C° 1.1 mm 2 m/S 740 mmHg 98%
    02:00 +14°C° 1.1 mm 1 m/S 740 mmHg 98%
    03:00 +14°C° 2.7 mm 2 m/S 740 mmHg 98%
    04:00 +13°C° 2.7 mm 3 m/S 740 mmHg 98%
    05:00 +13°C° 2.7 mm 3 m/S 740 mmHg 98%
    06:00 +14°C° 2.2 mm 4 m/S 741 mmHg 96%
    07:00 +14°C° 2.2 mm 5 m/S 741 mmHg 95%
    08:00 +14°C° 2.2 mm 7 m/S 741 mmHg 93%
    09:00 +14°C° 0.6 mm 7 m/S 741 mmHg 91%
    10:00 +14°C° 0.6 mm 7 m/S 742 mmHg 89%
    11:00 +13°C° 0.6 mm 8 m/S 742 mmHg 87%
    12:00 +13°C° 0.1 mm 8 m/S 743 mmHg 84%
    13:00 +15°C° 0.1 mm 8 m/S 743 mmHg 81%
    14:00 +15°C° 0.1 mm 8 m/S 743 mmHg 79%
    15:00 +15°C° 0 mm 8 m/S 744 mmHg 77%
    16:00 +13°C° 0 mm 8 m/S 744 mmHg 76%
    17:00 +13°C° 0 mm 9 m/S 744 mmHg 74%
    18:00 +12°C° 0 mm 8 m/S 745 mmHg 74%
    19:00 +12°C° 0 mm 8 m/S 745 mmHg 73%
    20:00 +12°C° 0 mm 7 m/S 746 mmHg 73%
    21:00 +11°C° 0 mm 7 m/S 747 mmHg 76%
    22:00 +11°C° 0 mm 6 m/S 747 mmHg 78%
    23:00 +10°C° 0 mm 5 m/S 748 mmHg 81%

    1 Juni, Montag

    Zeit Temperatur Niederschläge Wind Luftdruck Luftfeuchtigkeit
    00:00 +9°C° 0 mm 5 m/S 748 mmHg 84%
    01:00 +10°C° 0 mm 4 m/S 748 mmHg 87%
    02:00 +8°C° 0 mm 4 m/S 749 mmHg 90%
    03:00 +8°C° 0 mm 4 m/S 749 mmHg 88%
    04:00 +8°C° 0 mm 4 m/S 749 mmHg 87%
    05:00 +8°C° 0 mm 5 m/S 750 mmHg 85%
    06:00 +9°C° 0 mm 5 m/S 750 mmHg 81%
    07:00 +10°C° 0 mm 5 m/S 750 mmHg 77%
    08:00 +12°C° 0 mm 5 m/S 751 mmHg 72%
    09:00 +13°C° 0 mm 5 m/S 751 mmHg 68%
    10:00 +14°C° 0 mm 6 m/S 751 mmHg 64%
    11:00 +15°C° 0 mm 6 m/S 751 mmHg 60%
    12:00 +15°C° 0 mm 6 m/S 751 mmHg 60%
    13:00 +15°C° 0 mm 5 m/S 751 mmHg 61%
    14:00 +15°C° 0 mm 5 m/S 750 mmHg 61%
    15:00 +15°C° 0.1 mm 5 m/S 750 mmHg 63%
    16:00 +15°C° 0.1 mm 4 m/S 750 mmHg 65%
    17:00 +14°C° 0.1 mm 4 m/S 750 mmHg 67%
    18:00 +13°C° 0 mm 3 m/S 750 mmHg 72%
    19:00 +12°C° 0 mm 3 m/S 750 mmHg 76%
    20:00 +12°C° 0 mm 2 m/S 750 mmHg 81%
    21:00 +10°C° 0 mm 2 m/S 750 mmHg 82%
    22:00 +9°C° 0 mm 2 m/S 750 mmHg 84%
    23:00 +9°C° 0 mm 2 m/S 751 mmHg 85%

    2 Juni, Dienstag

    Zeit Temperatur Niederschläge Wind Luftdruck Luftfeuchtigkeit
    00:00 +8°C° 0 mm 2 m/S 751 mmHg 86%
    01:00 +7°C° 0 mm 2 m/S 750 mmHg 87%
    02:00 +7°C° 0 mm 2 m/S 750 mmHg 88%
    03:00 +7°C° 0 mm 2 m/S 750 mmHg 88%
    04:00 +6°C° 0 mm 2 m/S 751 mmHg 88%
    05:00 +6°C° 0 mm 2 m/S 751 mmHg 87%
    06:00 +8°C° 0 mm 3 m/S 751 mmHg 79%
    07:00 +10°C° 0 mm 3 m/S 751 mmHg 71%
    08:00 +12°C° 0 mm 4 m/S 751 mmHg 63%
    09:00 +13°C° 0 mm 4 m/S 751 mmHg 61%
    10:00 +13°C° 0 mm 4 m/S 751 mmHg 59%
    11:00 +14°C° 0 mm 4 m/S 751 mmHg 57%
    12:00 +14°C° 0.1 mm 4 m/S 751 mmHg 57%
    13:00 +14°C° 0.1 mm 4 m/S 751 mmHg 57%
    14:00 +15°C° 0.1 mm 4 m/S 751 mmHg 57%
    15:00 +14°C° 0.1 mm 4 m/S 750 mmHg 58%
    16:00 +14°C° 0.1 mm 4 m/S 750 mmHg 59%
    17:00 +14°C° 0.1 mm 4 m/S 750 mmHg 60%
    18:00 +13°C° 0 mm 3 m/S 750 mmHg 67%
    19:00 +12°C° 0 mm 2 m/S 750 mmHg 73%
    20:00 +10°C° 0 mm 2 m/S 750 mmHg 80%
    21:00 +10°C° 0 mm 1 m/S 750 mmHg 81%
    22:00 +9°C° 0 mm 1 m/S 750 mmHg 83%
    23:00 +8°C° 0 mm 1 m/S 751 mmHg 85%

    3 Juni, Mittwoch

    Zeit Temperatur Niederschläge Wind Luftdruck Luftfeuchtigkeit
    00:00 +8°C° 0 mm 1 m/S 751 mmHg 85%
    01:00 +7°C° 0 mm 1 m/S 750 mmHg 86%
    02:00 +7°C° 0 mm 1 m/S 750 mmHg 87%
    03:00 +7°C° 0 mm 1 m/S 751 mmHg 87%
    04:00 +7°C° 0 mm 1 m/S 751 mmHg 86%
    05:00 +8°C° 0 mm 1 m/S 751 mmHg 86%
    06:00 +10°C° 0 mm 1 m/S 751 mmHg 79%
    07:00 +12°C° 0 mm 1 m/S 751 mmHg 73%
    08:00 +14°C° 0 mm 2 m/S 751 mmHg 67%
    09:00 +15°C° 0 mm 2 m/S 751 mmHg 62%
    10:00 +16°C° 0 mm 2 m/S 751 mmHg 57%
    11:00 +17°C° 0 mm 3 m/S 751 mmHg 52%
    12:00 +17°C° 0 mm 2 m/S 751 mmHg 52%
    13:00 +17°C° 0 mm 2 m/S 750 mmHg 53%
    14:00 +17°C° 0 mm 2 m/S 750 mmHg 53%
    15:00 +17°C° 0.1 mm 2 m/S 750 mmHg 55%
    16:00 +17°C° 0.1 mm 2 m/S 750 mmHg 57%
    17:00 +17°C° 0.1 mm 2 m/S 750 mmHg 59%
    18:00 +15°C° 0.1 mm 1 m/S 750 mmHg 65%
    19:00 +14°C° 0.1 mm 1 m/S 750 mmHg 71%
    20:00 +12°C° 0.1 mm 1 m/S 750 mmHg 77%
    21:00 +11°C° 0 mm 1 m/S 750 mmHg 80%
    22:00 +10°C° 0 mm 1 m/S 750 mmHg 82%
    23:00 +9°C° 0 mm 1 m/S 750 mmHg 84%
    Mehr zeigen